Theta_e
286 287 286 285 284 285 284 285 280 283 284 287 289 289 286 286 286 285 284 284 284 284 285 286 285 285 285 285 285 285 284 282 282 283 283 283 282 282 283 284 284 284 284 285
279 283 283 281 284 284 285 285 284 284 283 290 287 285 284 284 283 283 283 285 284 284 284 285 285 285 284 284 285 284 283 282 282 282 281 281 281 280 281 282 282 282 282 283
274 279 279 274 279 281 282 284 283 279 282 281 281 281 282 282 282 282 283 284 284 284 284 285 285 286 284 284 285 283 282 281 281 281 280 280 279 278 279 279 280 280 281 282
274 275 267 279 284 283 281 282 283 282 279 279 279 281 282 283 283 283 283 283 284 285 285 286 286 285 285 284 283 282 281 281 280 280 279 279 277 277 277 278 278 278 279 280
271 271 275 278 280 279 278 277 282 282 279 279 280 281 280 284 284 283 283 284 285 287 286 286 285 284 283 282 281 281 280 280 280 279 278 277 275 275 276 276 276 276 277 277
274 269 266 276 281 281 280 272 281 280 278 279 279 273 278 283 284 284 284 285 285 286 286 284 284 282 280 279 279 278 278 278 279 278 277 275 275 274 275 274 275 275 275 276
272 270 273 281 279 281 270 274 281 281 280 280 277 279 283 284 283 284 285 285 286 285 282 282 281 279 277 277 276 277 277 276 276 276 275 275 274 274 273 272 272 271 272 273
271 268 266 280 278 274 280 282 282 281 282 281 282 282 282 282 283 283 283 283 283 280 279 279 278 276 274 273 275 274 272 271 271 271 271 272 270 270 270 269 269 269 269 271
274 273 281 281 280 283 284 282 283 282 283 282 281 281 282 281 282 282 281 279 278 276 274 274 274 273 270 271 270 269 267 265 265 266 267 267 267 267 267 267 267 267 268 269
275 277 279 281 283 283 284 283 284 284 283 283 281 281 281 280 279 278 277 275 274 272 270 269 270 270 268 268 266 264 262 262 263 263 263 263 264 265 264 264 264 265 266 266
276 278 280 281 282 282 283 284 283 283 282 281 280 279 278 277 275 274 273 272 271 268 267 267 267 266 265 265 263 261 261 261 261 262 262 262 263 263 263 264 264 263 264 265
274 280 279 280 283 284 282 282 282 282 279 277 275 275 274 272 272 271 269 268 267 266 265 264 264 263 263 263 262 260 260 260 261 261 261 262 261 261 266 267 268 269 270 269
279 283 282 283 283 284 282 282 280 277 275 274 273 271 270 269 269 267 266 265 264 263 263 262 261 261 261 261 261 260 259 260 260 260 261 260 261 260 259 263 267 268 269 270
284 283 280 282 280 282 278 276 274 272 271 270 269 267 266 265 265 264 263 263 263 261 260 260 259 259 262 262 261 260 259 259 260 260 261 261 261 261 261 260 260 261 265 267
283 283 281 279 277 273 273 271 269 269 269 267 266 264 263 262 262 262 262 260 260 259 258 259 260 260 262 262 260 259 259 259 260 261 262 262 262 262 262 262 261 262 263 266
279 272 271 272 273 271 269 267 267 267 266 265 263 262 262 261 260 259 259 259 257 258 257 259 260 261 262 261 260 259 260 260 261 261 262 262 262 262 262 262 262 262 263 263
271 270 267 267 268 268 266 266 265 264 263 262 261 260 258 257 256 256 256 257 258 258 260 260 260 261 260 261 259 259 260 261 261 261 261 262 262 263 264 265 265 264 265 266
265 265 264 264 265 264 263 263 262 261 260 260 259 258 256 254 254 255 256 257 258 259 260 261 261 260 260 259 260 261 260 260 261 261 262 262 263 264 264 264 264 265 266 268
261 261 261 261 260 259 259 259 259 258 258 257 256 255 255 255 255 255 256 256 257 259 261 260 262 260 259 260 261 259 260 260 260 261 262 262 262 263 263 263 263 263 263 263
257 258 257 257 257 256 256 257 256 256 255 254 252 251 252 253 253 254 256 257 259 260 260 259 258 258 259 259 259 259 259 259 259 260 260 260 261 261 261 261 261 261 261 261
255 255 255 255 255 255 254 255 254 253 254 253 252 252 252 253 254 254 256 258 261 260 259 259 259 259 260 258 259 259 258 258 258 258 258 259 259 260 260 260 260 260 260 260
253 253 253 254 254 253 253 252 252 251 251 251 251 251 250 252 255 257 259 258 260 260 259 259 259 259 258 258 259 259 258 258 258 258 258 258 258 258 259 259 259 259 260 260
253 252 253 251 251 252 250 250 251 251 251 251 252 253 255 258 259 258 258 261 260 260 259 259 258 260 258 258 258 258 257 257 257 257 257 257 257 257 258 259 259 260 260 260
250 250 250 251 248 249 250 255 253 255 252 253 253 254 256 258 259 261 261 260 260 259 259 258 259 261 257 257 257 257 257 256 256 256 257 257 257 257 257 257 257 258 258 258
249 249 248 248 252 255 253 255 255 256 256 258 259 259 259 260 259 260 260 259 260 258 258 259 260 259 257 257 256 256 256 256 255 255 255 255 255 255 256 256 256 256 256 257
252 254 254 252 253 254 256 256 256 258 258 258 259 259 259 259 259 259 259 259 258 258 257 257 256 256 256 256 255 255 255 255 255 255 255 255 255 255 255 255 255 255 256 256
253 253 255 255 256 256 256 256 256 256 257 257 257 258 258 258 258 258 257 257 257 256 256 255 255 255 254 254 255 255 255 254 254 253 253 253 253 253 253 254 255 255 255 255
Wind_Speed
18 21 20 18 20 24 24 23 25 23 23 24 23 16 7 2 1 5 7 6 4 5 7 9 9 10 9 10 9 9 9 8 9 8 9 9 8 10 10 9 9 9 9 9
17 19 20 22 25 24 22 22 25 26 28 23 10 3 3 2 4 7 9 8 5 5 7 8 8 8 9 10 9 9 10 10 9 8 8 8 8 9 10 10 11 10 10 10
19 15 18 18 23 23 26 27 25 23 12 7 5 4 5 6 7 9 10 10 8 8 8 7 8 7 9 10 8 6 8 9 9 9 9 9 9 11 11 12 12 11 13 11
16 13 22 13 14 12 16 14 10 4 2 2 2 7 9 10 10 11 12 11 11 10 11 10 10 9 9 6 7 8 10 10 9 10 11 10 10 11 12 11 13 13 13 14
12 16 19 25 21 20 17 17 11 8 5 2 9 12 14 10 7 10 11 10 10 11 11 11 10 9 7 7 9 10 11 12 12 11 11 11 12 14 14 13 13 14 14 16
10 15 18 14 5 2 2 13 7 6 3 7 7 9 12 12 11 11 11 10 10 11 8 10 10 9 8 10 11 12 13 13 13 13 12 14 14 14 15 14 15 13 17 16
14 17 13 8 4 2 8 9 10 5 6 9 11 11 13 11 13 11 10 11 10 8 8 10 9 10 12 12 13 13 12 14 14 14 15 16 16 15 15 16 16 17 18 18
5 7 14 4 5 6 6 2 5 10 13 13 14 12 12 13 11 10 11 10 9 9 10 11 12 11 13 15 14 14 14 16 16 16 14 14 18 17 17 17 18 19 18 18
8 8 5 10 9 11 12 13 15 18 16 12 12 12 12 12 11 10 8 8 8 8 11 13 10 10 14 15 15 17 17 17 17 17 16 15 17 17 15 15 15 16 15 16
14 16 23 19 20 18 16 17 17 15 13 11 13 10 7 6 6 6 6 7 7 8 10 13 11 11 12 14 15 15 17 17 16 16 16 15 13 13 14 13 14 15 15 15
14 20 21 19 19 19 18 16 15 12 8 10 8 6 5 5 5 6 7 8 7 9 11 14 14 14 12 13 14 15 15 15 15 13 15 15 14 13 13 14 17 16 15 16
15 19 16 18 16 15 11 14 13 10 6 4 2 4 3 4 5 6 7 9 9 10 12 13 14 15 14 13 13 15 16 13 13 13 13 13 14 14 23 30 33 35 36 30
19 20 20 20 18 16 14 12 4 3 2 4 3 2 2 4 4 7 8 9 10 12 13 13 14 15 14 14 13 15 16 17 14 15 14 14 14 14 16 17 31 32 34 35
18 18 19 21 15 9 2 4 5 4 3 2 1 1 2 4 6 6 8 9 11 11 12 13 13 15 14 14 15 16 16 21 14 13 13 13 14 14 14 15 16 16 22 26
17 13 12 8 1 4 4 5 4 4 3 2 1 2 3 5 7 8 9 9 9 11 12 12 13 15 14 14 15 16 14 13 13 13 13 15 14 14 14 15 15 15 15 20
3 3 1 3 4 6 5 4 4 4 3 2 3 4 5 6 8 8 9 8 8 10 12 12 14 14 14 15 16 13 13 18 17 13 13 13 13 13 13 14 14 13 12 13
1 3 2 3 5 4 3 1 2 2 2 3 4 4 4 5 7 9 8 8 9 11 12 11 13 14 15 13 14 11 11 12 16 12 12 12 13 13 13 13 12 12 12 13
4 4 3 2 2 3 3 2 2 3 4 4 5 5 5 4 8 9 10 9 10 10 9 8 11 14 14 13 13 11 10 11 11 12 12 12 12 12 11 11 11 12 10 10
4 5 4 4 3 2 3 3 3 4 5 5 5 6 6 7 9 10 9 9 10 9 7 10 14 15 13 14 14 10 10 11 11 11 11 14 11 10 10 10 10 11 10 9
4 3 3 1 0 1 3 4 4 5 5 4 4 6 8 9 8 7 7 9 9 6 8 10 11 11 12 11 14 9 10 11 11 11 10 11 11 11 10 12 11 10 10 9
2 1 1 2 3 2 3 4 5 7 6 5 7 8 8 8 8 7 8 6 3 5 8 10 7 8 9 10 9 8 9 10 10 10 10 10 11 11 11 10 10 9 9 9
1 1 3 4 5 7 4 4 5 6 7 7 7 7 6 8 8 8 7 7 5 9 7 5 6 11 9 11 6 8 8 9 8 8 9 9 9 10 10 10 10 9 9 9
0 1 3 3 4 6 6 7 6 6 6 6 7 7 7 7 6 5 5 1 4 7 6 5 9 12 11 5 6 7 8 9 9 8 8 8 8 9 9 10 10 10 10 9
0 2 3 3 3 4 6 5 4 7 6 6 7 7 7 5 4 3 3 5 6 7 5 5 8 10 9 5 5 6 6 7 8 8 8 10 8 8 8 9 9 9 9 11
2 2 2 3 4 4 4 5 6 5 5 5 3 2 3 3 3 3 3 4 6 6 6 7 9 9 5 5 5 6 6 6 7 7 8 8 8 8 8 8 8 8 7 8
1 1 2 2 3 4 5 5 5 4 5 4 2 2 2 2 2 3 3 4 4 6 5 5 5 5 5 5 6 6 6 6 6 7 7 7 8 7 8 8 7 7 7 7
2 2 1 1 2 3 4 4 5 5 5 5 5 3 3 3 3 4 4 4 4 5 4 4 4 5 5 5 5 5 5 5 5 6 6 6 6 6 7 7 7 6 6 6
Wind_Direction
269 275 283 288 281 275 269 265 260 278 287 288 296 305 331 8 249 252 248 253 296 320 311 318 331 327 331 330 339 339 332 332 331 330 326 323 322 324 316 315 315 313 313 305
281 277 276 275 271 267 271 272 269 271 272 279 357 44 256 282 275 293 301 271 283 287 293 289 280 294 305 314 316 333 321 315 314 313 313 307 306 309 304 308 312 310 306 298
267 282 287 267 256 262 263 262 269 275 312 359 6 335 320 312 303 301 305 292 268 286 298 312 307 292 289 296 297 298 291 294 299 301 298 303 310 310 310 306 300 300 297 294
271 282 258 263 274 290 286 286 297 309 67 111 352 323 315 300 293 301 306 301 289 288 298 309 312 309 302 294 283 280 277 280 281 287 290 296 301 301 302 302 299 295 290 291
254 250 276 291 287 286 294 292 311 205 180 8 328 313 291 284 346 319 302 306 305 297 295 306 311 317 318 302 291 287 285 288 285 283 282 284 287 294 295 296 293 291 287 287
247 259 265 286 348 349 308 274 127 110 174 303 301 283 289 324 323 301 290 297 305 314 316 310 324 329 314 303 301 297 299 296 293 286 280 278 278 281 287 285 282 286 285 281
243 255 268 270 92 145 245 299 150 179 284 286 275 272 292 300 291 287 295 302 307 316 313 318 333 335 315 309 304 306 307 301 297 292 288 285 283 280 283 283 280 279 278 278
229 260 270 88 120 227 324 196 228 268 296 289 290 281 286 283 285 293 309 328 339 327 317 321 331 334 313 308 316 318 312 302 298 297 294 291 288 286 283 281 278 276 275 276
233 244 244 192 229 253 271 272 282 297 298 290 281 272 278 287 295 318 331 339 339 329 317 316 328 325 310 312 319 315 312 307 305 302 297 293 289 287 286 281 276 276 275 274
253 247 257 266 268 268 274 275 279 281 287 284 270 280 286 291 303 312 321 327 336 325 309 305 319 315 307 312 315 309 303 302 303 299 298 294 287 285 283 282 280 277 276 275
252 257 266 262 264 266 269 273 279 285 277 263 269 259 284 297 308 307 318 322 326 314 304 304 313 309 311 308 308 303 300 299 297 292 292 293 284 283 279 275 273 275 271 271
252 259 262 266 273 275 281 281 274 274 199 188 210 264 286 284 308 316 317 321 309 304 301 302 304 304 306 307 305 301 299 298 297 297 293 289 288 285 278 284 285 284 283 278
256 259 262 267 278 277 280 283 214 185 186 216 202 252 288 298 308 325 309 306 304 305 303 301 301 300 302 302 298 300 296 296 295 293 291 290 288 289 291 286 285 285 285 284
250 261 265 263 270 295 231 143 119 125 137 163 164 68 321 309 307 300 299 305 307 301 292 294 295 292 298 306 300 292 290 290 287 287 287 288 288 287 287 288 291 289 284 283
260 258 271 298 51 116 126 147 174 198 185 183 194 301 305 303 302 307 310 302 297 293 287 290 296 299 306 305 300 297 296 292 290 288 288 289 288 286 285 285 285 286 290 289
317 74 26 231 221 178 180 181 219 218 191 225 262 284 304 305 303 296 292 291 291 294 295 296 299 306 309 307 299 297 298 297 293 291 294 295 292 289 287 284 284 283 284 284
176 249 182 244 224 208 216 202 241 249 269 269 281 295 294 290 290 280 271 275 273 274 286 295 301 314 308 307 312 301 302 303 308 301 302 300 297 295 294 291 284 277 275 277
81 90 85 52 129 186 195 216 267 292 285 302 294 292 290 277 277 286 285 289 286 288 289 302 320 310 317 312 313 314 313 310 311 309 306 307 310 308 317 319 320 329 336 328
93 110 89 83 53 21 315 293 292 298 288 284 287 279 283 278 274 275 285 288 290 296 322 328 322 321 310 319 333 321 315 318 318 317 318 320 319 324 328 334 338 341 343 346
111 104 101 126 132 221 276 275 285 279 278 284 276 270 267 263 261 267 275 279 279 281 321 318 318 312 314 328 334 324 324 326 325 325 328 329 331 333 337 343 350 354 354 357
145 152 282 286 284 298 280 293 291 274 271 251 246 258 262 275 276 269 273 278 307 339 322 314 320 314 322 334 327 332 332 332 332 332 334 336 337 340 346 350 355 4 6 8
99 325 319 321 304 302 295 270 265 260 258 254 247 248 256 269 261 250 241 253 306 323 318 318 322 322 333 324 339 336 337 339 338 339 340 341 346 348 352 355 2 7 14 18
350 306 308 291 284 297 306 280 261 248 255 254 251 251 252 270 290 283 283 126 314 315 323 318 321 331 337 338 341 339 341 344 345 345 347 347 350 352 356 359 5 8 13 18
2 262 269 280 275 264 284 309 284 277 240 254 247 238 251 274 276 251 280 299 308 321 311 305 323 344 333 343 343 341 343 348 346 341 344 350 354 357 1 4 5 7 11 16
232 250 243 261 278 300 304 297 284 265 259 268 278 268 260 267 271 315 309 310 317 330 316 319 336 343 335 344 342 341 340 347 342 340 340 344 348 353 357 360 3 5 6 8
212 320 317 279 284 306 312 314 315 323 330 331 325 355 342 331 317 305 315 317 320 324 315 326 339 337 335 339 332 333 337 341 346 339 338 341 343 347 350 353 355 357 359 358
199 252 324 333 351 335 328 323 327 336 339 340 325 11 352 345 339 335 328 331 329 317 322 328 323 330 328 324 321 328 333 334 339 333 328 334 337 338 340 340 340 341 345 351